Date String (YYYY-MM-DD hh:mm:ss) UTC,Instrument flags,absolute air pressure of the measurement (hPa),sample flow rate (lpm),inlet stack bypass flow (lpm),air temperature of the measurement (°C),ambient temperature measured by the external sensor (°C),aerosol sample conditioner tube jacket temperature (°C),OPC LED temperature (°C),internal box temperature (°C),relative humidity of the measurement (%),span deviation,mass concentration of particles derived from Lorenz-Mie calculation of OPC scattering (μg/m³),mass concentration of particles derived from Lorenz-Mie calculation of OPC scattering (μg/m³),mass concentration of particles derived from Lorenz-Mie calculation of OPC scattering (μg/m³)
DateTimeUTC,F1_M11,P_M11,Q1_M11,Q2_M11,T1_M11,T2_M11,T3_M11,T4_M11,T5_M11,U1_M11,ZSPAN_M11,X2_M11,X0_M11,X1_M11
2023-06-26 00:00:00,SystemResetWarning,0831.7,5.00,000.00,029.2,025.3,000.0,037.7,030.6,32.5,0000.0,0004.71,0013.48,0003.61
2023-06-26 00:01:00,SystemResetWarning,0831.7,5.00,000.00,029.2,025.9,000.0,037.7,030.7,32.3,0000.0,0004.77,0014.17,0003.62
2023-06-26 00:02:00,SystemResetWarning,0831.7,5.00,000.00,029.2,026.4,000.0,037.7,030.8,32.8,0000.0,0004.84,0015.22,0003.61
2023-06-26 00:03:00,SystemResetWarning,0831.7,5.00,000.00,029.2,026.9,000.0,037.7,030.9,32.9,0000.0,0004.86,0014.75,0003.62
2023-06-26 00:04:00,SystemResetWarning,0831.7,4.99,000.00,029.3,027.2,000.0,037.7,031.0,32.3,0000.0,0004.87,0014.99,0003.62
2023-06-26 00:05:00,SystemResetWarning,0831.7,4.99,000.00,029.3,027.6,000.0,037.7,031.1,32.6,0000.0,0004.84,0015.82,0003.63
2023-06-26 00:06:00,SystemResetWarning,0831.7,5.00,000.00,029.4,027.9,000.0,037.8,031.1,32.4,0000.0,0004.85,0016.41,0003.63
2023-06-26 00:07:00,SystemResetWarning,0831.7,5.00,000.00,029.4,027.8,000.0,037.8,031.2,31.8,0000.0,0004.87,0017.02,0003.63
2023-06-26 00:08:00,SystemResetWarning,0831.7,4.99,000.00,029.4,026.0,000.0,037.7,031.1,31.9,0000.0,0004.89,0017.55,0003.62
2023-06-26 00:09:00,SystemResetWarning,0831.7,5.01,000.00,029.4,024.7,000.0,037.7,031.0,31.8,0000.0,0004.85,0017.04,0003.62
2023-06-26 00:10:00,SystemResetWarning,0831.7,5.01,000.00,029.3,024.6,000.0,037.7,030.9,32.4,0000.0,0004.80,0017.06,0003.63
2023-06-26 00:11:00,SystemResetWarning,0831.7,5.00,000.00,029.2,025.0,000.0,037.7,030.6,31.9,0000.0,0004.77,0016.80,0003.64
2023-06-26 00:12:00,SystemResetWarning,0831.7,5.00,000.00,029.2,025.5,000.0,037.7,030.6,32.4,0000.0,0004.73,0016.78,0003.64
2023-06-26 00:13:00,SystemResetWarning,0831.7,5.00,000.00,029.2,026.0,000.0,037.7,030.7,33.1,0000.0,0004.76,0016.05,0003.63
2023-06-26 00:14:00,SystemResetWarning,0832.0,4.99,000.00,029.2,026.5,000.0,037.7,030.8,32.4,0000.0,0004.76,0015.99,0003.63
2023-06-26 00:15:00,SystemResetWarning,0832.1,5.00,000.00,029.2,027.0,000.0,037.7,030.9,33.4,0000.0,0004.78,0015.35,0003.64
2023-06-26 00:16:00,SystemResetWarning,0832.1,5.00,000.00,029.3,027.4,000.0,037.7,031.0,32.5,0000.0,0004.75,0014.43,0003.63
2023-06-26 00:17:00,SystemResetWarning,0832.2,5.00,000.00,029.3,027.7,000.0,037.8,031.1,32.7,0000.0,0004.75,0013.90,0003.64
2023-06-26 00:18:00,SystemResetWarning,0832.3,5.00,000.00,029.4,027.9,000.0,037.8,031.1,32.8,0000.0,0004.72,0013.14,0003.63
2023-06-26 00:19:00,SystemResetWarning,0832.3,4.99,000.00,029.4,028.1,000.0,037.8,031.2,31.7,0000.0,0004.73,0012.90,0003.64
2023-06-26 00:20:00,SystemResetWarning,0831.9,4.99,000.00,029.5,026.7,000.0,037.8,031.2,31.8,0000.0,0004.74,0012.99,0003.65
2023-06-26 00:21:00,SystemResetWarning,0831.7,5.01,000.00,029.4,025.0,000.0,037.7,031.0,32.5,0000.0,0004.73,0013.13,0003.65
2023-06-26 00:22:00,SystemResetWarning,0831.7,5.01,000.00,029.4,024.6,000.0,037.7,031.0,32.9,0000.0,0004.70,0012.99,0003.64
2023-06-26 00:23:00,SystemResetWarning,0831.7,5.01,000.00,029.3,024.9,000.0,037.7,030.6,32.4,0000.0,0004.71,0012.45,0003.64
2023-06-26 00:24:00,SystemResetWarning,0831.6,5.01,000.00,029.2,025.4,000.0,037.7,030.6,32.1,0000.0,0004.65,0011.85,0003.66
2023-06-26 00:25:00,SystemResetWarning,0831.6,5.00,000.00,029.2,025.9,000.0,037.7,030.7,31.8,0000.0,0004.64,0012.11,0003.66
2023-06-26 00:26:00,SystemResetWarning,0831.6,5.00,000.00,029.2,026.4,000.0,037.7,030.8,32.2,0000.0,0004.59,0011.86,0003.66
2023-06-26 00:27:00,SystemResetWarning,0831.6,5.00,000.00,029.3,026.9,000.0,037.7,030.9,32.9,0000.0,0004.60,0011.92,0003.67
2023-06-26 00:28:00,SystemResetWarning,0831.7,5.01,000.00,029.3,027.3,000.0,037.7,031.0,31.7,0000.0,0004.60,0012.51,0003.67
2023-06-26 00:29:00,SystemResetWarning,0831.7,5.00,000.00,029.3,027.6,000.0,037.8,031.1,30.6,0000.0,0004.65,0013.52,0003.69
2023-06-26 00:30:00,SystemResetWarning,0831.7,5.00,000.00,029.4,027.9,000.0,037.8,031.1,30.8,0000.0,0004.67,0013.73,0003.71
2023-06-26 00:31:00,SystemResetWarning,0831.7,4.97,000.00,029.4,026.9,000.0,037.8,031.2,31.1,0000.0,0004.67,0013.80,0003.71
2023-06-26 00:32:00,SystemResetWarning,0831.7,5.02,000.00,029.4,025.0,000.0,037.7,030.9,31.4,0000.0,0004.70,0014.18,0003.72
2023-06-26 00:33:00,SystemResetWarning,0831.7,5.01,000.00,029.4,024.5,000.0,037.7,030.9,30.5,0000.0,0004.73,0014.39,0003.73
2023-06-26 00:34:00,SystemResetWarning,0831.7,5.00,000.00,029.3,024.7,000.0,037.7,030.6,30.9,0000.0,0004.74,0015.54,0003.75
2023-06-26 00:35:00,SystemResetWarning,0831.7,5.00,000.00,029.2,025.2,000.0,037.7,030.5,31.9,0000.0,0004.78,0015.73,0003.76
2023-06-26 00:36:00,SystemResetWarning,0831.7,5.00,000.00,029.2,025.7,000.0,037.7,030.6,31.9,0000.0,0004.80,0015.67,0003.77
2023-06-26 00:37:00,SystemResetWarning,0831.7,4.98,000.00,029.2,026.3,000.0,037.7,030.7,31.9,0000.0,0004.86,0015.55,0003.77
2023-06-26 00:38:00,SystemResetWarning,0831.7,5.00,000.00,029.2,026.7,000.0,037.7,030.9,32.0,0000.0,0004.86,0015.13,0003.78
2023-06-26 00:39:00,SystemResetWarning,0831.7,5.01,000.00,029.2,027.1,000.0,037.7,030.9,32.5,0000.0,0004.86,0014.43,0003.79
2023-06-26 00:40:00,SystemResetWarning,0831.7,5.00,000.00,029.3,027.5,000.0,037.7,031.0,31.9,0000.0,0004.87,0013.54,0003.80
2023-06-26 00:41:00,SystemResetWarning,0831.7,5.01,000.00,029.3,027.8,000.0,037.7,031.1,31.1,0000.0,0004.85,0013.60,0003.81
2023-06-26 00:42:00,SystemResetWarning,0831.7,4.98,000.00,029.4,028.0,000.0,037.8,031.1,30.1,0000.0,0004.83,0013.29,0003.81
2023-06-26 00:43:00,SystemResetWarning,0831.7,4.99,000.00,029.4,027.5,000.0,037.8,031.2,30.5,0000.0,0004.87,0013.02,0003.83
2023-06-26 00:44:00,SystemResetWarning,0831.7,5.01,000.00,029.4,025.9,000.0,037.7,031.1,30.4,0000.0,0004.89,0012.91,0003.83
2023-06-26 00:45:00,SystemResetWarning,0831.7,5.01,000.00,029.4,025.5,000.0,037.7,031.1,31.4,0000.0,0004.95,0012.15,0003.83
2023-06-26 00:46:00,SystemResetWarning,0831.7,4.99,000.00,029.4,025.8,000.0,037.7,030.9,31.3,0000.0,0004.93,0012.07,0003.84
2023-06-26 00:47:00,SystemResetWarning,0831.7,5.00,000.00,029.3,026.2,000.0,037.7,030.8,31.1,0000.0,0004.97,0011.99,0003.85
2023-06-26 00:48:00,SystemResetWarning,0831.7,5.01,000.00,029.3,026.6,000.0,037.7,030.9,30.9,0000.0,0004.94,0011.95,0003.87
2023-06-26 00:49:00,SystemResetWarning,0831.7,4.99,000.00,029.4,027.0,000.0,037.8,031.0,32.4,0000.0,0005.01,0012.15,0003.87
2023-06-26 00:50:00,SystemResetWarning,0831.7,4.99,000.00,029.4,027.4,000.0,037.8,031.1,32.5,0000.0,0005.03,0012.17,0003.89
2023-06-26 00:51:00,SystemResetWarning,0831.7,5.02,000.00,029.4,027.7,000.0,037.8,031.1,30.9,0000.0,0005.00,0012.18,0003.90
2023-06-26 00:52:00,SystemResetWarning,0831.7,5.00,000.00,029.5,027.9,000.0,037.9,031.2,30.0,0000.0,0005.01,0012.79,0003.91
2023-06-26 00:53:00,SystemResetWarning,0831.7,4.98,000.00,029.5,026.7,000.0,037.8,031.2,29.9,0000.0,0005.03,0013.54,0003.92
2023-06-26 00:54:00,SystemResetWarning,0831.7,5.02,000.00,029.5,024.9,000.0,037.8,031.1,30.9,0000.0,0005.04,0014.19,0003.94
2023-06-26 00:55:00,SystemResetWarning,0831.7,5.00,000.00,029.4,024.6,000.0,037.7,031.0,31.4,0000.0,0005.06,0014.37,0003.96
2023-06-26 00:56:00,SystemResetWarning,0831.7,4.99,000.00,029.3,024.8,000.0,037.7,030.8,32.2,0000.0,0005.06,0014.08,0003.97
2023-06-26 00:57:00,SystemResetWarning,0831.7,5.00,000.00,029.3,025.3,000.0,037.7,030.6,31.6,0000.0,0005.08,0014.26,0003.98
2023-06-26 00:58:00,SystemResetWarning,0831.7,5.01,000.00,029.2,025.9,000.0,037.7,030.7,32.4,0000.0,0005.08,0014.20,0003.98
2023-06-26 00:59:00,SystemResetWarning,0831.9,5.00,000.00,029.3,026.4,000.0,037.7,030.8,31.8,0000.0,0005.11,0014.59,0003.98
